This demonstration page uses our WeatherBlox Daily Observations layout. Learn more.

Left ArrowRight Arrow

Hourly Observations for March 19, 2021

Temp ( °F °C ) Dew Point ( °F °C ) Humidity (%) Winds ( mph kmh ) Pressure ( in mb ) Visibility ( mi km ) Precip ( " mm )
12:54 am 00:54 Clear 29 -1.7 24 -4.4 82 82 N 7 11 30.46 1032 10 16 0.00 0.00
1:54 am 01:54 Clear 25 -3.9 22 -5.6 88 88 N 6 9 30.48 1032 10 16 0.00 0.00
2:54 am 02:54 Clear 24 -4.4 21 -6.1 88 88 N 5 7 30.49 1033 10 16 0.00 0.00
3:54 am 03:54 Clear 26 -3.3 21 -6.1 81 81 N 3 6 30.48 1032 10 16 0.00 0.00
4:54 am 04:54 Clear 24 -4.4 21 -6.1 88 88 N 6 9 30.48 1032 10 16 0.00 0.00
5:54 am 05:54 Clear 24 -4.4 22 -5.6 91 91 N 5 7 30.48 1032 10 16 0.00 0.00
6:54 am 06:54 Clear 22 -5.6 20 -6.7 92 92 N 6 9 30.49 1032 9 14 0.00 0.00
7:54 am 07:54 Sunny 23 -5 20 -6.7 88 88 N 3 6 30.51 1033 8 13 0.00 0.00
8:54 am 08:54 Sunny 30 -1.1 26 -3.3 85 85 Calm 30.52 1034 8 13 0.00 0.00
9:54 am 09:54 Sunny 35 1.7 29 -1.7 78 78 Calm 30.53 1034 9 14 0.00 0.00
10:54 am 10:54 Sunny 43 6.1 29 -1.7 58 58 SSW 5 7 30.52 1034 10 16 0.00 0.00
11:54 am 11:54 Sunny 47 8.3 23 -5 39 39 SE 7 11 30.51 1033 10 16 0.00 0.00
12:54 pm 12:54 Sunny 50 10 23 -5 35 35 SE 7 11 30.50 1033 10 16 0.00 0.00
1:54 pm 13:54 Sunny 52 11.1 20 -6.7 28 28 SE 8 13 30.47 1032 10 16 0.00 0.00
2:54 pm 14:54 Sunny 53 11.7 22 -5.6 30 30 S 7 11 30.44 1031 10 16 0.00 0.00
3:54 pm 15:54 Sunny 54 12.2 19 -7.2 25 25 SE 10 17 30.42 1030 10 16 0.00 0.00
4:54 pm 16:54 Sunny 56 13.3 24 -4.4 29 29 S 10 17 30.39 1029 10 16 0.00 0.00
5:54 pm 17:54 Sunny 55 12.8 23 -5 29 29 SSE 15 24 30.37 1029 10 16 0.00 0.00
6:54 pm 18:54 Sunny 53 11.7 24 -4.4 32 32 SSE 15 24 30.37 1029 10 16 0.00 0.00
7:54 pm 19:54 Clear 47 8.3 25 -3.9 42 42 SSE 10 17 30.38 1029 10 16 0.00 0.00
8:54 pm 20:54 Clear 41 5 25 -3.9 53 53 SSE 8 13 30.39 1029 10 16 0.00 0.00
9:54 pm 21:54 Clear 41 5 27 -2.8 57 57 SSE 9 15 30.38 1029 10 16 0.00 0.00
10:54 pm 22:54 Clear 37 2.8 25 -3.9 62 62 S 7 11 30.38 1029 10 16 0.00 0.00
11:54 pm 23:54 Clear 36 2.2 25 -3.9 64 64 SSE 10 17 30.37 1029 10 16 0.00 0.00

Powered by AerisWeather